Header for Extended Forecast Station List Page

Search by: ID | Name | Date | Parm | Value | Avg | % Avg
Sort by: ID | Name | Date | Parm | Value | Avg | % Avg

Enter search or view all records.

Click on id for station plot
#IDNameDateParmValueAvg% Avg
0BULO3BULLY CREEK-BULLY CREEK DAM10-22-2018INFLOW (KAF)33104
1RIDI1WILLOW CREEK-RIRIE DAM10-22-2018INFLOW (KAF)8899
2TNAW1TEANAWAY-BELOW FORKS10-22-2018DISCHARGE (KAF)104025
3BERO3MALHEUR-AGENCY VALLEY DAM10-22-2018INFLOW (KAF)111667
4LWRI1LITTLE WOOD-LITTLE WOOD DAM10-22-2018INFLOW (KAF)121580
5SATI1ST MARIES-NEAR SANTA10-22-2018DISCHARGE (KAF)143442
6DEDI1DEADWOOD-NEAR LOWMAN10-22-2018INFLOW (KAF)151982
7BUDW1BUMPING-BUMPING LAKE DAM10-22-2018INFLOW (KAF)163643
8HOTI1BRUNEAU-NEAR HOT SPRINGS10-22-2018DISCHARGE (KAF)172862
9WRMO3MALHEUR-WARM SPRINGS DAM10-22-2018INFLOW (KAF)172375
10STRM8ST. REGIS-NEAR ST. REGIS10-22-2018DISCHARGE (KAF)183846
11MYKO3MCKAY CREEK-NEAR PILOT ROCK10-22-2018DISCHARGE (KAF)1817104
12VALO3MALHEUR-NEAR VALE10-22-2018DISCHARGE (KAF)202773
13ARDW1ENTIAT-NEAR ARDENVOIR10-22-2018DISCHARGE (KAF)222298
14HWRI1BIG LOST-AT HOWELL RANCH NEAR CHILLY10-22-2018DISCHARGE (KAF)2221104
15MAGI1BIG WOOD-MAGIC DAM10-22-2018INFLOW (KAF)252790
16KADW1KACHESS-KACHESS DAM10-22-2018INFLOW (KAF)274660
17GIBO3UMATILLA-NEAR GIBBON10-22-2018DISCHARGE (KAF)303488
18KEDW1YAKIMA-KEECHELUS LAKE10-22-2018INFLOW (KAF)335263
19RILW1TIETON-RIMROCK LAKE NEAR RIMROCK10-22-2018INFLOW (KAF)356753
20MACI1BIG LOST-MACKAY RESERVOIR NEAR MACKAY10-22-2018INFLOW (KAF)385720
21NACW1NACHES-NEAR NACHES10-22-2018DISCHARGE (KAF)397949
22HALI1BIG WOOD-AT HAILEY10-22-2018DISCHARGE (KAF)3939101
23WSRI1WEISER-NEAR WEISER10-22-2018DISCHARGE (KAF)428152
24LUCI1BOISE-LUCKY PEAK DAM10-22-2018INFLOW (KAF)43MM
25CLUW1CLE ELUM-CLE ELUM LAKE10-22-2018INFLOW (KAF)5410452
26BIGI1BOISE-AT GLENWOOD BRIDGE10-22-2018DISCHARGE (KAF)5536153
27CLFW1NACHES-NEAR CLIFFDEL10-22-2018DISCHARGE (KAF)5710554
28EASW1YAKIMA-AT EASTON10-22-2018DISCHARGE (KAF)586885
29PIHI1PORTNEUF-AT POCATELLO10-22-2018DISCHARGE (KAF)586392
30RCCM8ROCK CREEK-NEAR CLINTON10-22-2018DISCHARGE (KAF)6148127
31MILI1SNAKE-AT MILNER10-22-2018DISCHARGE (KAF)6357111
32MONO3NF JOHN DAY-AT MONUMENT10-22-2018DISCHARGE (KAF)6311156
33OWYO3OWYHEE-OWYHEE DAM10-22-2018INFLOW (KAF)648476
34ARAI1SF BOISE-ANDERSON RANCH DAM10-22-2018INFLOW (KAF)667589
35DLGM8CLARK FORK-AT DEER LODGE10-22-2018DISCHARGE (KAF)7362117
36CSDI1NF PAYETTE-CASCADE DAM10-22-2018INFLOW (KAF)749478
37PDTO3UMATILLA-AT PENDLETON10-22-2018DISCHARGE (KAF)798099
38LAUW1KETTLE-AT LAURIER10-22-2018DISCHARGE (KAF)8012564
39IPDI1HENRYS FORK-ISLAND PARK DAM10-22-2018INFLOW (KAF)8211671
40TEAI1TETON-NEAR ST. ANTHONY10-22-2018DISCHARGE (KAF)9110389
41TCHW1WALLA WALLA-NEAR TOUCHET10-22-2018DISCHARGE (KAF)9112076
42PRTI1PRIEST-NEAR PRIEST RIVER10-22-2018DISCHARGE (KAF)9723441
43PATW1METHOW-NEAR PATEROS10-22-2018DISCHARGE (KAF)979899
44JLKW4SNAKE-JACKSON LAKE AT DAM10-22-2018INFLOW (KAF)10411392
45FCFM8NF FLATHEAD-NEAR COLUMBIA FALLS10-22-2018DISCHARGE (KAF)10518955
46WGCM8MF FLATHEAD-NEAR WEST GLACIER10-22-2018DISCHARGE (KAF)10516663
47CHEI1FALL RIVER-NEAR CHESTER10-22-2018DISCHARGE (KAF)113112100
48UMAO3UMATILLA-NEAR UMATILLA10-22-2018DISCHARGE (KAF)11484135
49HHWM8SF FLATHEAD-HUNGRY HORSE DAM10-22-2018INFLOW (KAF)13224354
50SERO3JOHN DAY-AT SERVICE CK10-22-2018DISCHARGE (KAF)13320465
51BONM8BLACKFOOT-NEAR BONNER10-22-2018DISCHARGE (KAF)138134103
52DRMM8CLARK FORK-NR DRUMMOND10-22-2018DISCHARGE (KAF)153MM
53CHDW1CHELAN-LAKE CHELAN DAM10-22-2018INFLOW (KAF)15615899
54BITM8BITTERROOT-NEAR MISSOULA10-22-2018DISCHARGE (KAF)15922471
55PESW1WENATCHEE-AT PESHASTIN10-22-2018DISCHARGE (KAF)17729959
56PARI1BOISE-NEAR PARMA10-22-2018DISCHARGE (KAF)18520989
57TRYO3GRANDE RONDE-TROY10-22-2018DISCHARGE (KAF)18930462
58PITW1KLICKITAT-NEAR PITT10-22-2018DISCHARGE (KAF)22128378
59TONW1OKANOGAN-NEAR TONASKET10-22-2018DISCHARGE (KAF)22328179
60COEI1COEUR D ALENE-COEUR D ALENE LAKE10-22-2018INFLOW (KAF)22869933
61HODO3HOOD-NEAR TUCKER BRIDGE10-22-2018DISCHARGE (KAF)232232100
62UMTW1YAKIMA-AT UMTANUM10-22-2018DISCHARGE (KAF)23424795
63UNDW1WHITE SALMON-NEAR UNDERWOOD10-22-2018DISCHARGE (KAF)23524098
64DWRI1NF CLEARWATER-DWORSHAK DAM10-22-2018INFLOW (KAF)25252148
65EMMI1PAYETTE-NEAR EMMETT10-22-2018DISCHARGE (KAF)28135080
66ORFI1CLEARWATER-AT OROFINO10-22-2018DISCHARGE (KAF)31867747
67JKSW4SNAKE-NEAR JACKSON10-22-2018DISCHARGE (KAF)327308106
68SPOW1SPOKANE-AT SPOKANE10-22-2018DISCHARGE (KAF)328MM
69ANTI1HENRYS FORK-AT ST. ANTHONY10-22-2018DISCHARGE (KAF)349341102
70HEII1SNAKE-NEAR HEISE10-22-2018DISCHARGE (KAF)36158662
71PARW1YAKIMA-NEAR PARKER10-22-2018DISCHARGE (KAF)36647577
72ABOM8CLARK FORK-ABOVE MISSOULA10-22-2018DISCHARGE (KAF)367341108
73ALPW4SNAKE-NEAR ALPINE10-22-2018DISCHARGE (KAF)38338699
74REXI1HENRYS FORK-AT REXBURG10-22-2018DISCHARGE (KAF)437430102
75LLKW1SPOKANE-AT LONGLAKE10-22-2018INFLOW (KAF)515116444
76BELM8CLARK FORK-BELOW MISSOULA10-22-2018DISCHARGE (KAF)52957093
77SNAI1SNAKE-AT BLACKFOOT10-22-2018DISCHARGE (KAF)53973473
78BFTI1SNAKE-NEAR BLACKFOOT10-22-2018DISCHARGE (KAF)55478870
79KIOW1YAKIMA-AT KIONA10-22-2018DISCHARGE (KAF)57570482
80PLDI1SF SNAKE-PALISADES DAM10-22-2018INFLOW (KAF)60362497
81SHYI1SNAKE-NEAR SHELLEY10-22-2018DISCHARGE (KAF)62680478
82SIFI1SNAKE-AB EAGLE ROCK NR IDAHO FALLS10-22-2018DISCHARGE (KAF)63181677
83SRGM8CLARK FORK-AT ST REGIS10-22-2018DISCHARGE (KAF)67274690
84LYDM8KOOTENAI-LIBBY DAM10-22-2018INFLOW (KAF)74888485
85SPDI1CLEARWATER-AT SPALDING10-22-2018DISCHARGE (KAF)783161548
86CFMM8FLATHEAD-AT COLUMBIA FALLS10-22-2018DISCHARGE (KAF)884117575
87KERM8FLATHEAD-KERR DAM10-22-2018INFLOW (KAF)986149566
88WHBI1SALMON-AT WHITEBIRD10-22-2018DISCHARGE (KAF)1045106798
89AFRI1SNAKE-AMERICAN FALLS RESERVOIR10-22-2018INFLOW (KAF)1212147582
90MODO3DESCHUTES-AT MOODY NR BIGGS10-22-2018DISCHARGE (KAF)1329139795
91SWAI1SNAKE-BELOW SWAN FALLS10-22-2018DISCHARGE (KAF)1804256070
92LEOI1KOOTENAI-AT LEONIA10-22-2018DISCHARGE (KAF)24451513162
93WEII1SNAKE-AT WEISER10-22-2018DISCHARGE (KAF)2590363271
94NOXM8CLARK FORK-NOXON RAPIDS DAM10-22-2018INFLOW (KAF)2623351375
95BRNI1SNAKE-BROWNLEE DAM10-22-2018INFLOW (KAF)2766374274
96CABI1CLARK FORK-CABINET GORGE DAM10-22-2018INFLOW (KAF)2881366979
97ALFW1PEND OREILLE-ALBENI FALLS DAM10-22-2018INFLOW (KAF)2968428069
98ANAW1SNAKE-NEAR ANATONE10-22-2018DISCHARGE (KAF)4011569870
99LGDW1SNAKE-LOWER GRANITE DAM10-22-2018INFLOW (KAF)4794752064
100LGSW1SNAKE-LITTLE GOOSE DAM10-22-2018INFLOW (KAF)4794757063
101LMNW1SNAKE-LOWER MONUMENTAL DAM10-22-2018INFLOW (KAF)4840766163
102IHDW1SNAKE-ICE HARBOR DAM10-22-2018INFLOW (KAF)4840757664
103CIBW1COLUMBIA-AT INTL BOUNDARY10-22-2018DISCHARGE (KAF)18727MM
104GCDW1COLUMBIA-GRAND COULEE DAM10-22-2018INFLOW (KAF)1940117239113
105CHJW1COLUMBIA-CHIEF JOSEPH DAM10-22-2018INFLOW (KAF)204952145296
106WELW1COLUMBIA-WELLS DAM10-22-2018INFLOW (KAF)208152183195
107RRHW1COLUMBIA-ROCKY REACH DAM10-22-2018INFLOW (KAF)214042232996
108PRWW1COLUMBIA-PRIEST RAPIDS DAM10-22-2018INFLOW (KAF)2158420109107
109WANW1COLUMBIA-WANAPUM DAM10-22-2018INFLOW (KAF)2158619761109
110MCDW1COLUMBIA-MCNARY DAM10-22-2018INFLOW (KAF)270472968491
111JDAO3COLUMBIA-JOHN DAY DAM10-22-2018INFLOW (KAF)282063067892
112TDAO3COLUMBIA-THE DALLES DAM10-22-2018INFLOW (KAF)288723435584
113BONO3COLUMBIA-BONNEVILLE DAM10-22-2018INFLOW (KAF)295433655281
114BFEI1KOOTENAI-AT BONNERS FERRY10-22-2018STAGE (FT)MMM
115HOPI1PEND OREILLE-PEND OREILLE LAKE NR HOPE10-22-2018LAKE ELEVATION (FT)MMM
116SJMI1ST JOE-AT ST MARIES10-22-2018STAGE (FT)MMM